Emporia, KS

10:49 AM CDT on August 16, 2017 (GMT -0500)
Emporia Municipal

Weather History for KEMP - January, 2014

Change the Weather History Date:

Friday, January 24, 2014

  Actual Average Record
Temperature  
Mean Temperature 25 °F 31 °F  
Max Temperature 46 °F 42 °F 69 °F (2017)
Min Temperature 3 °F 21 °F 1 °F (2008)
Degree Days  
Heating Degree Days 40 34  
Month to date heating degree days 888 816  
Since 1 July heating degree days 3024 2749  
Cooling Degree Days 0 0  
Month to date cooling degree days 0 0  
Year to date cooling degree days 0 0  
Moisture  
Dew Point 6 °F    
Average Humidity 50    
Maximum Humidity 72    
Minimum Humidity 27    
Precipitation  
Precipitation 0.00 in 0.03 in 0.00 in (2017)
Month to date precipitation 0.12 0.39  
Year to date precipitation 0.12 0.39  
Sea Level Pressure  
Sea Level Pressure 30.26 in    
Wind  
Wind Speed 19 mph (SW)    
Max Wind Speed 30 mph    
Max Gust Speed 37 mph    
Visibility 10 miles    
Events      
T = Trace of Precipitation, MM = Missing Value Source: NWS Daily Summary

Daily Weather History Graph

Daily Weather History Graph

Search for Another Location

Airport or City:

Trip Planner

Search our weather history database for the weather conditions in past years. The results will help you decide how hot, cold, wet, or windy it might be!

Date:

Astronomy

Jan. 24, 2014 Rise Set
Actual Time 7:35 AM CST 5:38 PM CST
Civil Twilight 7:07 AM CST 6:06 PM CST
Nautical Twilight 6:35 AM CST 6:38 PM CST
Astronomical Twilight 6:04 AM CST 7:10 PM CST
Moon 1:05 AM CST (1/24) 11:56 AM CST (1/24)
Length of Visible Light 10h 59m
Length of Day
10h 02m
Last Quarter, 44% of the Moon is Illuminated
Jan 24
Last Quarter
Jan 30
New
Feb 6
First Quarter
Feb 14
Full
Feb 22
Last Quarter

Hourly Weather History & Observations

Time (CST) Temp. Windchill Dew Point Humidity Pressure Visibility Wind Dir Wind Speed Gust Speed Precip Events Conditions
12:53 AM 3.9 °F -8.2 °F -4.0 °F 70% 30.73 in 10.0 mi SSW 6.9 mph - N/A   Clear
1:53 AM 8.1 °F -9.0 °F -2.0 °F 64% 30.67 in 10.0 mi SW 15.0 mph - N/A   Clear
2:53 AM 8.1 °F -7.7 °F -2.0 °F 64% 30.63 in 10.0 mi SSW 12.7 mph - N/A   Clear
3:53 AM 10.0 °F -5.9 °F -2.9 °F 56% 30.60 in 10.0 mi SSW 13.8 mph - N/A   Clear
4:53 AM 10.9 °F -5.9 °F -2.9 °F 54% 30.57 in 10.0 mi SW 16.1 mph 25.3 mph N/A   Clear
5:53 AM 10.0 °F -6.5 °F -2.0 °F 58% 30.54 in 10.0 mi SW 15.0 mph 21.9 mph N/A   Clear
6:53 AM 10.9 °F -7.0 °F -2.9 °F 54% 30.48 in 10.0 mi SSW 18.4 mph 26.5 mph N/A   Clear
7:53 AM 14.0 °F -3.9 °F -4.0 °F 45% 30.45 in 10.0 mi SW 20.7 mph 32.2 mph N/A   Clear
8:53 AM 19.0 °F 2.7 °F -2.0 °F 40% 30.42 in 10.0 mi SW 20.7 mph 32.2 mph N/A   Clear
9:53 AM 24.1 °F 8.0 °F -2.9 °F 31% 30.36 in 10.0 mi SSW 25.3 mph 36.8 mph N/A   Clear
10:53 AM 28.9 °F 14.0 °F 5.0 °F 36% 30.30 in 10.0 mi SSW 27.6 mph 35.7 mph N/A   Clear
11:53 AM 33.1 °F 19.8 °F 8.1 °F 35% 30.26 in 10.0 mi SW 26.5 mph 35.7 mph N/A   Clear
12:53 PM 36.0 °F 23.9 °F 8.1 °F 31% 30.18 in 10.0 mi SSW 25.3 mph 34.5 mph N/A   Clear
1:53 PM 39.0 °F 28.5 °F 9.0 °F 29% 30.13 in 10.0 mi SW 23.0 mph 29.9 mph N/A   Clear
2:53 PM 39.9 °F 30.8 °F 9.0 °F 28% 30.10 in 10.0 mi SW 18.4 mph 28.8 mph N/A   Clear
3:53 PM 42.1 °F 32.8 °F 10.9 °F 28% 30.06 in 10.0 mi SW 21.9 mph 28.8 mph N/A   Partly Cloudy
4:53 PM 42.1 °F 33.6 °F 12.9 °F 31% 30.05 in 10.0 mi WSW 18.4 mph 26.5 mph N/A   Clear
5:53 PM 42.1 °F 34.5 °F 14.0 °F 32% 30.03 in 10.0 mi SW 15.0 mph - N/A   Clear
6:53 PM 42.1 °F 33.9 °F 16.0 °F 35% 30.01 in 10.0 mi SW 17.3 mph - N/A   Mostly Cloudy
7:53 PM 43.0 °F 34.2 °F 16.0 °F 34% 29.97 in 10.0 mi SW 20.7 mph 29.9 mph N/A   Scattered Clouds
8:53 PM 42.1 °F 33.1 °F 16.0 °F 35% 29.94 in 10.0 mi SW 20.7 mph - N/A   Overcast
9:53 PM 43.0 °F 34.5 °F 16.0 °F 34% 29.91 in 10.0 mi SW 19.6 mph - N/A   Overcast
10:53 PM 42.1 °F 33.9 °F 17.1 °F 37% 29.88 in 10.0 mi SW 17.3 mph - N/A   Mostly Cloudy
11:53 PM 45.0 °F 37.9 °F 19.0 °F 36% 29.87 in 10.0 mi WSW 16.1 mph 23.0 mph N/A   Overcast